This demonstration page uses our WeatherBlox Daily Observations layout. Learn more.

36.17497, -115.13722

Hourly Observations for December 1, 2020

Temp ( °F °C ) Dew Point ( °F °C ) Humidity (%) Winds ( mph kmh ) Pressure ( in mb ) Visibility ( mi km ) Precip ( " mm )
12:53 am 00:53 Clear 46 7.8 15 -9.4 29 29 W 5 7 30.16 1021 10 16.0934 0 0
1:53 am 01:53 Clear 47 8.3 12 -11.1 24 24 NW 3 6 30.16 1021 10 16.0934 0 0
2:53 am 02:53 Clear 47 8.3 11 -11.7 23 23 N 7 11 30.16 1022 10 16.0934 0 0
3:53 am 03:53 Clear 43 6.1 12 -11.1 28 28 WSW 3 6 30.18 1022 10 16.0934 0 0
4:53 am 04:53 Clear 48 8.9 10 -12.2 21 21 Calm 30.19 1022 10 16.0934 0 0
5:53 am 05:53 Clear 44 6.7 12 -11.1 27 27 NW 3 6 30.21 1023 10 16.0934 0 0
6:53 am 06:53 Sunny 43 6.1 12 -11.1 28 28 NW 8 13 30.23 1024 10 16.0934 0 0
7:53 am 07:53 Sunny 47 8.3 12 -11.1 24 24 NW 6 9 30.24 1024 10 16.0934 0 0
8:53 am 08:53 Sunny 52 11.1 12 -11.1 20 20 SE 6 9 30.26 1025 10 16.0934 0 0
9:53 am 09:53 Sunny 55 12.8 12 -11.1 18 18 SE 7 11 30.27 1025 10 16.0934 0 0
10:53 am 10:53 Sunny 60 15.6 12 -11.1 15 15 VRB 6 9 30.24 1024 10 16.0934 0 0
11:53 am 11:53 Sunny 62 16.7 13 -10.6 14 14 Calm 30.2 1023 10 16.0934 0 0
12:53 pm 12:53 Sunny 63 17.2 12 -11.1 13 13 SE 3 6 30.19 1022 10 16.0934 0 0
1:53 pm 13:53 Sunny 65 18.3 14 -10 14 14 Calm 30.16 1022 10 16.0934 0 0
2:53 pm 14:53 Sunny 66 18.9 15 -9.4 14 14 Calm 30.16 1021 10 16.0934 0 0
3:53 pm 15:53 Sunny 66 18.9 14 -10 13 13 Calm 30.17 1022 10 16.0934 0 0
4:53 pm 16:53 Clear 59 15 16 -8.9 18 18 E 5 7 30.18 1022 10 16.0934 0 0
5:53 pm 17:53 Clear 59 15 16 -8.9 18 18 NE 9 15 30.19 1023 10 16.0934 0 0
6:53 pm 18:53 Clear 58 14.4 17 -8.3 20 20 E 7 11 30.22 1023 10 16.0934 0 0
7:53 pm 19:53 Clear 54 12.2 19 -7.2 25 25 S 3 6 30.22 1024 10 16.0934 0 0
8:53 pm 20:53 Clear 52 11.1 19 -7.2 27 27 S 7 11 30.24 1024 10 16.0934 0 0
9:53 pm 21:53 Clear 50 10 19 -7.2 29 29 SSW 6 9 30.24 1024 10 16.0934 0 0
10:53 pm 22:53 Clear 49 9.4 19 -7.2 31 31 WSW 5 7 30.24 1024 10 16.0934 0 0
11:53 pm 23:53 Clear 46 7.8 18 -7.8 32 32 W 5 7 30.24 1024 10 16.0934 0 0

Powered by AerisWeather